Waarnemingen

Advertentie
Mijn weer
Sevilla/San Pablo, Spanje (8391): temperatuur & dauwpunt: 14.08.2018 01:00:00 - 20.08.2018 01:00:00 (CEST)Sevilla/San Pablo, Spanje (8391): windsnelheid: 14.08.2018 01:00:00 - 20.08.2018 01:00:00 (CEST)Sevilla/San Pablo, Spanje (8391): windrichting: 14.08.2018 01:00:00 - 20.08.2018 01:00:00 (CEST)Sevilla/San Pablo, Spanje (8391): luchtdruk: 14.08.2018 01:00:00 - 20.08.2018 01:00:00 (CEST)Sevilla/San Pablo, Spanje (8391): zicht: 14.08.2018 01:00:00 - 20.08.2018 01:00:00 (CEST)
Datum & Tijd tt [°C] td [°C] ff [km/u] ff [kn] dd ppp [hPa] vv [km]
20.08.2018 01:00:00 27,9 14,5 11 6 WZW 1015,8 -
20.08.2018 00:00:00 28,5 15,8 13 7 ZW 1015,5 -
19.08.2018 23:00:00 29,4 17,2 15 8 ZW 1014,9 30
19.08.2018 22:00:00 31,4 16,2 15 8 ZW 1014,0 -
19.08.2018 21:00:00 33,3 15,3 16 9 ZW 1013,2 -
19.08.2018 20:00:00 35,3 15,6 21 11 ZW 1012,8 30
19.08.2018 19:00:00 36,8 14,7 18 10 ZW 1012,7 -
19.08.2018 18:00:00 37,9 13,8 13 7 ZW 1012,7 -
19.08.2018 17:00:00 38,1 13,5 15 8 WZW 1013,1 30
19.08.2018 16:00:00 37,6 14,0 21 11 ZW 1013,5 -
19.08.2018 15:00:00 38,0 12,2 9 5 O 1013,6 -
19.08.2018 14:00:00 36,2 13,6 16 9 O 1014,4 30
19.08.2018 13:00:00 34,5 15,4 16 9 O 1015,1 -
19.08.2018 12:00:00 32,8 14,9 16 9 O 1015,6 -
19.08.2018 11:00:00 30,8 16,4 21 11 O 1015,4 30
19.08.2018 10:00:00 28,8 17,8 16 9 O 1015,5 -
19.08.2018 09:00:00 24,9 17,1 9 5 NNO 1015,4 -
19.08.2018 08:00:00 21,8 15,4 13 7 NNO 1015,1 30
19.08.2018 07:00:00 22,4 16,9 2 1 ONO 1014,9 -
19.08.2018 06:00:00 22,9 16,7 5 3 OZO 1014,7 -
19.08.2018 05:00:00 23,5 17,0 2 1 O 1014,6 30
19.08.2018 04:00:00 25,1 17,3 4 2 ZZW 1014,5 -
19.08.2018 03:00:00 25,4 16,9 4 2 Z 1014,4 -
19.08.2018 02:00:00 27,0 16,6 13 7 W 1014,3 30
19.08.2018 01:00:00 27,5 16,5 5 3 W 1014,3 -
19.08.2018 00:00:00 29,6 16,1 8 4 ZW 1014,0 -
18.08.2018 23:00:00 30,5 16,9 13 7 ZW 1013,6 30
18.08.2018 22:00:00 32,5 16,3 11 6 ZZW 1012,9 -
18.08.2018 21:00:00 35,3 8,9 15 8 O 1012,0 -
18.08.2018 20:00:00 37,5 9,4 16 9 ONO 1011,3 30
18.08.2018 19:00:00 38,2 8,7 18 10 NO 1011,3 -
18.08.2018 18:00:00 38,6 10,6 13 7 ONO 1011,3 -
18.08.2018 17:00:00 38,3 10,6 9 5 ONO 1011,9 30
18.08.2018 16:00:00 37,9 9,7 15 8 OZO 1012,7 -
18.08.2018 15:00:00 37,3 12,7 9 5 O 1013,5 -
18.08.2018 14:00:00 35,9 14,1 13 7 O 1014,2 30
18.08.2018 13:00:00 33,6 14,1 13 7 NNO 1015,1 -
18.08.2018 12:00:00 32,0 13,7 15 8 NNO 1015,5 -
18.08.2018 11:00:00 29,9 14,8 13 7 NO 1015,4 30
18.08.2018 10:00:00 27,1 16,4 11 6 ONO 1015,8 -
18.08.2018 09:00:00 22,7 17,4 9 5 NNO 1015,6 -
18.08.2018 08:00:00 21,6 17,0 0 0 N 1015,3 30
18.08.2018 07:00:00 21,1 17,5 5 3 O 1014,9 -
18.08.2018 06:00:00 21,5 18,1 5 3 OZO 1014,7 -
18.08.2018 05:00:00 22,2 18,4 4 2 ZO 1014,4 30
18.08.2018 04:00:00 22,8 18,3 8 4 Z 1014,4 -
18.08.2018 03:00:00 23,9 17,6 11 6 ZZW 1014,5 -
18.08.2018 02:00:00 24,6 17,3 9 5 ZZW 1014,7 30
18.08.2018 01:00:00 25,7 17,9 13 7 ZZW 1014,5 -
18.08.2018 00:00:00 28,0 15,7 13 7 ZZW 1014,3 -
17.08.2018 23:00:00 29,4 16,2 9 5 W 1013,7 30
17.08.2018 22:00:00 30,0 16,4 15 8 ZW 1013,0 -
17.08.2018 21:00:00 30,5 16,1 21 11 ZW 1012,6 -
17.08.2018 20:00:00 32,8 17,5 16 9 ZW 1012,3 30
17.08.2018 19:00:00 35,4 15,8 15 8 ZW 1012,2 -
17.08.2018 18:00:00 35,8 13,9 8 4 WNW 1012,5 -
17.08.2018 17:00:00 35,1 13,0 9 5 WZW 1013,2 30
17.08.2018 16:00:00 34,4 13,4 5 3 NW 1014,3 -
17.08.2018 15:00:00 33,3 15,3 8 4 N 1015,1 -
17.08.2018 14:00:00 31,8 15,3 4 2 Z 1015,6 30
17.08.2018 13:00:00 30,2 15,5 8 4 ZW 1016,1 -
17.08.2018 12:00:00 28,5 16,2 8 4 ZO 1016,4 -
17.08.2018 11:00:00 26,3 16,5 4 2 ZZO 1016,6 30
17.08.2018 10:00:00 23,7 17,7 4 2 ZO 1016,5 -
17.08.2018 09:00:00 20,9 17,5 4 2 OZO 1016,5 -
17.08.2018 08:00:00 19,6 17,2 4 2 Z 1015,8 20
17.08.2018 07:00:00 19,8 17,2 9 5 ZZW 1015,6 -
17.08.2018 06:00:00 20,1 16,9 8 4 ZZW 1015,8 -
17.08.2018 05:00:00 20,0 16,8 9 5 Z 1016,0 30
17.08.2018 04:00:00 20,5 16,9 5 3 ZZW 1016,3 -
17.08.2018 03:00:00 20,6 16,6 9 5 ZZW 1016,2 -
17.08.2018 02:00:00 21,1 16,5 9 5 ZW 1017,0 30
17.08.2018 01:00:00 21,8 16,3 11 6 ZZW 1016,7 -
17.08.2018 00:00:00 22,7 15,5 11 6 ZZW 1016,2 -
16.08.2018 23:00:00 23,6 15,4 15 8 ZW 1015,9 30
16.08.2018 22:00:00 24,5 15,4 16 9 ZW 1015,0 -
16.08.2018 21:00:00 26,0 15,7 18 10 ZW 1014,5 -
16.08.2018 20:00:00 - - - - - - -
16.08.2018 19:00:00 29,6 16,0 24 13 ZW 1014,0 -
16.08.2018 18:00:00 30,4 16,8 21 11 ZW 1014,2 -
16.08.2018 17:00:00 29,6 16,7 21 11 ZW 1014,7 30
16.08.2018 16:00:00 29,3 16,5 15 8 WZW 1015,5 -
16.08.2018 15:00:00 28,2 16,8 15 8 W 1016,5 -
16.08.2018 14:00:00 27,5 17,1 13 7 W 1017,0 30
16.08.2018 13:00:00 25,4 17,1 9 5 W 1017,4 -
16.08.2018 12:00:00 24,4 17,1 5 3 ONO 1017,9 -
16.08.2018 11:00:00 23,2 17,2 5 3 ONO 1017,7 20
16.08.2018 10:00:00 22,1 17,2 9 5 NNO 1017,6 -
16.08.2018 09:00:00 21,7 16,9 4 2 Z 1017,1 -
16.08.2018 08:00:00 21,2 16,8 8 4 ZZW 1016,9 20
16.08.2018 07:00:00 21,3 16,9 8 4 ZZW 1016,8 -
16.08.2018 06:00:00 20,8 16,8 8 4 WZW 1016,7 -
16.08.2018 05:00:00 20,6 16,8 13 7 ZW 1016,9 25
16.08.2018 04:00:00 20,5 17,3 11 6 ZZW 1016,9 -
16.08.2018 03:00:00 20,2 17,8 8 4 ZZW 1016,7 -
16.08.2018 02:00:00 20,5 17,7 11 6 ZW 1016,6 -
16.08.2018 01:00:00 21,0 17,3 8 4 ZZW 1016,3 -
16.08.2018 00:00:00 21,8 16,7 13 7 ZW 1016,1 -
15.08.2018 23:00:00 22,8 17,0 13 7 ZW 1016,1 30
15.08.2018 22:00:00 23,7 17,0 16 9 ZW 1015,4 -
15.08.2018 21:00:00 25,5 17,1 16 9 ZW 1014,9 -
15.08.2018 20:00:00 28,0 17,2 18 10 ZW 1014,4 30
15.08.2018 19:00:00 30,0 16,8 21 11 ZW 1014,4 -
15.08.2018 18:00:00 31,1 15,9 18 10 ZW 1014,4 -
15.08.2018 17:00:00 31,2 17,1 16 9 WZW 1014,9 30
15.08.2018 16:00:00 31,2 16,8 16 9 ZW 1015,5 -
15.08.2018 15:00:00 30,4 17,0 15 8 WZW 1016,1 -
15.08.2018 14:00:00 29,0 16,2 15 8 WZW 1016,7 30
15.08.2018 13:00:00 27,3 15,9 8 4 ZW 1017,2 -
15.08.2018 12:00:00 25,3 16,4 9 5 W 1017,5 -
15.08.2018 11:00:00 23,6 16,9 9 5 ZW 1017,5 25
15.08.2018 10:00:00 21,2 17,2 9 5 Z 1017,4 -
15.08.2018 09:00:00 19,7 17,9 13 7 ZW 1016,9 -
15.08.2018 08:00:00 19,3 17,8 13 7 ZW 1016,4 15
15.08.2018 07:00:00 18,1 16,6 2 1 W 1016,3 -
15.08.2018 06:00:00 18,2 16,7 2 1 Z 1016,0 -
15.08.2018 05:00:00 19,3 17,4 9 5 Z 1015,7 30
15.08.2018 04:00:00 19,2 17,5 13 7 Z 1015,7 -
15.08.2018 03:00:00 19,9 17,7 13 7 ZZW 1015,7 -
15.08.2018 02:00:00 20,4 17,1 9 5 Z 1016,1 30
15.08.2018 01:00:00 21,3 16,5 13 7 ZZW 1016,1 -
15.08.2018 00:00:00 22,0 16,7 15 8 ZZW 1016,1 -
14.08.2018 23:00:00 23,8 15,8 24 13 ZW 1015,9 30
14.08.2018 22:00:00 27,0 11,5 18 10 ZZW 1015,1 -
14.08.2018 21:00:00 30,1 10,1 16 9 ZZW 1014,3 -
14.08.2018 20:00:00 32,0 11,7 26 14 ZW 1014,0 30
14.08.2018 19:00:00 33,3 11,8 24 13 ZW 1014,3 -
14.08.2018 18:00:00 34,4 11,5 18 10 ZW 1014,6 -
14.08.2018 17:00:00 34,9 13,7 15 8 WZW 1014,9 30
14.08.2018 16:00:00 34,4 11,5 11 6 W 1015,3 -
14.08.2018 15:00:00 32,8 14,5 13 7 ZW 1016,0 -
14.08.2018 14:00:00 31,1 17,0 13 7 ZW 1016,5 30
14.08.2018 13:00:00 29,2 18,6 8 4 WZW 1017,0 -
14.08.2018 12:00:00 - - - - - - -
14.08.2018 11:00:00 23,0 19,3 9 5 ZZW 1017,2 9
14.08.2018 10:00:00 20,9 19,2 13 7 ZZW 1016,9 -
14.08.2018 09:00:00 20,6 18,8 15 8 ZW 1016,3 -
14.08.2018 08:00:00 19,6 17,9 8 4 ZW 1015,8 30
14.08.2018 07:00:00 19,6 17,0 5 3 ZW 1015,3 -
14.08.2018 06:00:00 20,2 16,5 2 1 ZW 1014,7 -
14.08.2018 05:00:00 20,3 16,1 5 3 ZW 1014,9 30
14.08.2018 04:00:00 21,4 16,2 5 3 ZZW 1015,0 -
14.08.2018 03:00:00 22,3 16,2 9 5 Z 1014,9 -
14.08.2018 02:00:00 22,2 15,8 8 4 ZZW 1014,7 30
14.08.2018 01:00:00 22,9 15,3 11 6 Z 1014,4 -

tt = temperatuur
td = dauwpunt
ff = windsnelheid
dd = windrichting
ppp = luchtdruk
vv = zicht

Weerstations in de omgeving